Regional Weather Roundup
Issued by NWS

Home | Current Version | Previous Version | Graphics & Text | Print | Product List | Glossary On
Versions: 1 2 3 4 5 6 7 8 9 10 11 12 13 14 15 16 17 18 19 20 21 22 23 24 25 26 27 28 29 30 31 32 33 34 35 36 37 38 39 40 41 42 43 44 45 46 47 48 49 50
000
ASUS43 KLOT 200006
RWRIL

ILLINOIS REGIONAL WEATHER ROUNDUP
NATIONAL WEATHER SERVICE CHICAGO/ROMEOVILLE IL
700 PM CDT SUN OCT 19 2014

NOTE: "FAIR" INDICATES FEW OR NO CLOUDS BELOW 12,000 FEET WITH NO
SIGNIFICANT WEATHER AND/OR OBSTRUCTIONS TO VISIBILITY.

* THESE STATIONS ARE NOT UNDER NWS QUALITY CONTROL. THEY ALSO MAY NOT
  REPORT WEATHER SUCH AS PRECIPITATION OR FOG.

ILZ001-002-007-009-015-016-024-200100-
NORTHWEST ILLINOIS

CITY           SKY/WX    TMP DP  RH WIND       PRES   REMARKS
MOLINE         MOCLDY    58  42  55 SW8       29.95F
6HR MIN TEMP:  58; 6HR MAX TEMP:  62;

STERLING*      MOCLDY    55  41  58 SW3       29.95F
SAVANNA*       PTCLDY    57  42  57 S10       29.92F
$$

ILZ003-004-008-010-011-017-018-200100-
NORTH CENTRAL ILLINOIS

CITY           SKY/WX    TMP DP  RH WIND       PRES   REMARKS
ROCKFORD       PTCLDY    51  41  68 S9        29.96F
6HR MIN TEMP:  51; 6HR MAX TEMP:  59;

FREEPORT*      PTCLDY    53  40  62 S8        29.94F
ROCHELLE*      PTCLDY    51  43  73 CALM      29.96F
DE KALB*       MOCLDY    50  41  71 S10       29.97F
PERU*          CLOUDY    56  43  61 S10       29.99F
$$

ILZ005-006-012>014-019>023-200100-
NORTHEAST ILLINOIS

CITY           SKY/WX    TMP DP  RH WIND       PRES   REMARKS
CHICAGO-OHARE  MOCLDY    52  42  69 S9        29.97F
6HR MIN TEMP:  51; 6HR MAX TEMP:  54;

CHICAGO-MIDWAY CLOUDY    54  42  64 S12       29.98F
6HR MIN TEMP:  53; 6HR MAX TEMP:  57;

AURORA         CLOUDY    53  42  66 S8        29.97F
6HR MIN TEMP:  53; 6HR MAX TEMP:  56;

LANSING*       CLOUDY    51  42  72 S8        30.01F
JOLIET*        CLOUDY    53  43  68 S7        29.99F
WAUKEGAN       MOCLDY    50  41  71 S12       29.94F
6HR MIN TEMP:  50; 6HR MAX TEMP:  54;

DUPAGE AIRPORT CLOUDY    52  42  69 S10       29.96F
6HR MIN TEMP:  52; 6HR MAX TEMP:  56;

KANKAKEE*      MOCLDY    51  43  74 S8        30.03F
WHEELING       MOCLDY    53  41  63 S9        29.97F
6HR MIN TEMP:  53; 6HR MAX TEMP:  56;

MORRIS*        CLOUDY    54  45  71 S8        29.98F
ROMEOVILLE*    CLOUDY    52  42  70 S8        29.99F
NORTHERLY ISL    N/A     53  41  63 S10         N/A
$$

LMZ740>746-200100-
SOUTHERN LAKE MICHIGAN

STATION/POSITION SKY/WX   TEMP    WIND        PRES    VSBY  WAVE
                          AIR SEA DIR/SP/G                  HT/PER
                          (F)     (DEG/KT/KT) (MB)    (MI)  (FT/S)
SOUTHERN BUOY              54 55  210/ 21/ 25 1014.2F         5/ 5
WAUKEGAN HARBOR            53     200/ 12/ 15   N/A
HARRISON CRIB              53     190/ 19/ 23   N/A
BURNHAM HARBOR             53     210/ 12/ 14   N/A
CALUMET HARBOR             53     180/  8/ 12 1014.3F
MICHIGAN CITY              53     170/  9/ 12   N/A
$$

ILZ025>027-034>036-040-047-049-050-058-095>099-200100-
WEST-CENTRAL ILLINOIS

CITY           SKY/WX    TMP DP  RH WIND       PRES   REMARKS
QUINCY         PTCLDY    55  44  66 S5        30.01F
GALESBURG*     MOCLDY    54  45  70 S6        29.98F
MACOMB*        MOCLDY    57  44  61 SW7       30.02S
JACKSONVILLE*  MOCLDY    55  46  72 S6        30.03F
PITTSFIELD*    MOCLDY    55  45  68 S3        30.04S
$$

ILZ028>032-037-038-041>044-048-051>054-059>061-200100-
CENTRAL ILLINOIS

CITY           SKY/WX    TMP DP  RH WIND       PRES   REMARKS
PONTIAC        CLOUDY    55  45  67 S8        30.01S
BLOOMINGTON    MOCLDY    52  45  77 S10       30.03F
DECATUR        CLEAR     53  44  71 S9        30.05F
PEORIA         MOCLDY    57  43  59 S8        30.00F
6HR MIN TEMP:  57; 6HR MAX TEMP:  63;

LACON*         MOCLDY    54  42  64 S3        29.99S
LINCOLN*       PTCLDY    55  44  67 S3        30.03R
SPRINGFIELD    MOCLDY    52  44  74 S5        30.05S
6HR MIN TEMP:  52; 6HR MAX TEMP:  63;

TAYLORVILLE    MOCLDY    50  43  76 S6        30.05F
$$

ILZ033-039-045-046-055>057-062-063-200100-
EAST-CENTRAL ILLINOIS

CITY           SKY/WX    TMP DP  RH WIND       PRES   REMARKS
CHAMPAIGN      PTCLDY    49  42  77 S8        30.06F
DANVILLE*      PTCLDY    48  42  80 S7        30.04F
RANTOUL*       PTCLDY    50  42  75 S6        30.06S
MATTOON        PTCLDY    49  43  80 S7        30.07F
PARIS*         CLEAR     44  41  89 S3        30.09F
$$

ILZ079-100>102-200100-
SOUTHWEST ILLINOIS

CITY           SKY/WX    TMP DP  RH WIND       PRES   REMARKS
BELLEVILLE     MOCLDY    55  47  74 S2        30.06F
CAHOKIA*       PTCLDY    58  47  66 S5        30.06S
SPARTA*        PTCLDY    56  46  68 S3        30.09S
$$

ILZ064>066-069>071-074>076-080>082-084>086-088>090-092>094-200100-
SOUTH-CENTRAL ILLINOIS

CITY           SKY/WX    TMP DP  RH WIND       PRES   REMARKS
CARBONDALE     CLEAR     50  43  77 S5        30.10F
6HR MIN TEMP:  50; 6HR MAX TEMP:  64;

CAIRO*         CLOUDY    54  47  76 CALM      30.11S
EFFINGHAM*     MOCLDY    52  42  70 S3        30.08F
MARION         CLEAR     52  46  82 CALM      30.10F
MT. VERNON     PTCLDY    48  43  81 CALM      30.11S
CENTRALIA*     PTCLDY    52  44  72 S6        30.08F
SALEM*         PTCLDY    56  47  73 SE3       30.09F
METROPOLIS*    MOCLDY    54  48  80 CALM      30.11S
$$

ILZ067-068-072-073-078-083-087-091-200100-
SOUTHEAST ILLINOIS

CITY           SKY/WX    TMP DP  RH WIND       PRES   REMARKS
LAWRENCEVILLE  PTCLDY    49  43  80 CALM      30.12S
FLORA*         PTCLDY    49  44  80 SE6       30.10F
FAIRFIELD*     PTCLDY    49  45  84 CALM      30.09F
HARRISBURG*    PTCLDY    51  45  81 CALM      30.12S HAZE
ROBINSON*      PTCLDY    48  43  84 S3        30.12S
CARMI*         PTCLDY    54  46  75 S3        30.10F
$$

ABBREVIATIONS USED IN REMARKS
   TC - TEMPERATURE IN CELSIUS
  WCI - WIND CHILL INDEX
   HX - HEAT INDEX
  VSB - VISIBILITY
$$




USA.gov is the U.S. government's official web portal to all federal, state and local government web resources and services.